RH
4 4 4 4 4 3 3 3 2 2 2 2 2 3 4 11 31 33 28 25 21 21 22 23 22 20 20 22 21 22 22 24 25 26 26 24 22 20 18 16 15 10 9 8 7
4 4 4 4 3 3 3 3 3 2 2 2 3 4 4 18 33 32 32 28 24 21 25 27 28 27 26 28 26 26 24 26 25 24 23 23 23 22 20 18 14 12 13 12 12
3 3 3 4 4 4 3 3 4 4 3 4 4 4 7 27 38 27 27 30 28 26 22 27 28 26 28 29 26 23 23 22 20 20 20 20 20 19 22 19 15 14 13 15 14
4 4 4 4 4 4 5 6 6 6 6 6 7 10 16 30 38 30 30 31 30 27 25 24 28 30 32 29 28 23 23 20 21 21 21 22 19 18 17 20 19 16 19 19 16
4 5 6 8 9 10 10 11 12 10 13 23 27 26 30 36 36 34 35 34 35 34 32 30 26 24 23 24 24 24 22 22 21 18 17 15 14 13 13 16 19 20 22 22 20
10 11 12 16 22 23 25 27 28 23 21 46 43 35 36 33 35 36 36 36 34 31 29 27 25 23 21 19 18 19 20 20 18 17 18 16 14 14 15 16 16 18 20 22 22
17 20 23 25 26 29 33 37 42 41 37 32 47 42 36 39 37 37 36 37 37 34 32 29 27 24 21 19 18 17 17 16 17 19 22 21 19 18 18 21 21 20 19 19 22
23 25 26 28 27 30 39 43 47 49 52 46 35 46 50 46 42 38 38 41 40 37 33 29 26 24 23 21 20 19 19 18 19 19 20 18 16 15 16 16 16 22 23 24 23
28 28 28 28 28 35 42 40 41 42 49 60 62 51 54 54 47 41 41 43 42 39 35 30 24 23 22 22 22 22 21 20 18 18 18 17 16 15 15 15 16 17 18 22 23
27 28 28 28 36 40 40 34 27 32 40 48 66 71 65 61 55 46 45 46 45 42 38 36 32 28 26 26 25 24 23 20 19 19 20 20 19 18 17 16 17 16 16 16 17
26 25 26 30 35 35 35 63 66 72 67 53 72 76 70 72 63 53 50 47 45 44 44 41 38 37 37 34 30 27 24 23 22 23 23 23 23 21 20 18 16 14 14 15 16
23 22 22 25 32 38 32 44 51 47 51 72 80 85 74 67 63 57 51 48 45 44 44 44 43 41 38 35 31 29 28 28 27 25 23 21 21 22 20 15 14 13 12 13 13
20 20 18 18 18 23 27 23 18 22 28 43 84 84 76 68 67 61 58 58 57 53 49 49 47 44 40 37 35 36 34 32 30 30 28 23 20 21 20 19 16 15 14 14 16
18 17 16 15 14 12 11 11 12 13 19 27 66 86 88 81 72 66 62 64 65 64 60 54 47 44 44 44 44 43 42 40 35 31 26 28 22 24 23 21 20 18 18 18 18
15 14 13 11 10 8 8 9 11 15 24 38 45 78 89 82 72 67 70 71 63 57 54 52 50 49 48 51 47 43 39 35 35 33 30 28 27 26 22 22 22 21 21 21 22
9 9 9 10 10 11 11 12 14 24 29 42 47 63 75 79 84 76 72 67 64 63 62 55 50 49 47 46 45 41 41 38 36 34 27 27 25 23 26 26 26 23 26 27 30
15 14 14 14 13 13 15 20 30 35 44 46 53 53 63 61 63 67 65 63 62 60 61 64 56 53 51 50 48 45 46 45 40 39 36 33 31 30 30 30 30 30 31 32 34
32 34 37 36 33 35 41 46 40 35 54 74 74 79 70 55 51 54 64 64 62 62 61 58 54 58 58 53 50 49 50 52 49 46 41 39 38 36 35 34 35 36 35 35 40
56 53 45 63 73 84 81 54 45 51 57 77 76 77 84 91 75 69 69 74 77 79 79 70 61 61 60 54 53 53 51 52 51 56 58 47 44 42 40 38 42 46 44 41 42
54 60 60 73 86 90 83 57 57 62 63 79 83 82 72 84 90 83 75 66 77 81 76 67 62 55 52 52 52 55 49 50 58 67 62 47 43 39 39 42 50 51 45 45 49
98 86 77 92 100 96 75 66 67 80 92 84 91 91 82 81 95 92 80 82 83 91 90 83 68 59 56 55 54 52 52 58 67 75 76 66 46 46 47 50 61 59 51 48 47
96 95 86 100 100 94 75 74 68 68 86 89 84 84 87 97 92 91 91 100 94 92 94 85 72 64 60 57 57 57 61 68 78 85 84 77 44 53 60 70 74 66 58 58 62
96 92 91 98 98 94 92 85 76 70 74 76 84 85 86 88 92 88 92 92 94 89 81 73 63 57 48 51 53 59 65 72 84 90 80 79 52 66 66 77 79 67 65 63 72
98 96 93 88 95 97 96 94 90 83 86 91 91 83 79 76 76 72 71 64 65 72 69 63 54 50 48 70 65 69 78 83 89 85 78 60 58 65 79 87 92 84 76 70 80
100 96 96 95 90 90 93 94 94 94 88 82 87 85 87 92 92 95 88 69 64 66 66 75 71 71 75 86 93 84 87 89 91 87 91 70 75 77 81 99 90 91 79 79 87
100 100 99 98 96 96 96 93 92 92 91 100 100 100 100 97 98 100 100 92 88 92 98 96 100 98 87 96 99 90 76 77 79 85 93 100 64 94 83 81 85 85 85 79 64
97 100 100 98 98 98 99 100 98 96 97 96 100 100 98 100 99 99 97 98 98 100 97 98 100 99 90 99 94 75 67 75 78 77 90 90 82 77 82 76 73 80 70 50 41
Wind_Speed
16 15 15 17 18 19 21 22 22 23 23 24 24 22 20 14 9 9 8 9 8 6 5 7 6 6 4 4 8 10 10 9 9 9 11 10 12 15 17 15 15 15 17 19 19
20 21 21 22 22 23 25 27 28 27 26 25 23 21 15 10 10 11 7 7 8 7 7 8 7 7 6 8 10 10 10 11 13 14 15 18 18 20 20 19 18 20 19 21 22
18 20 22 23 26 27 28 30 29 29 27 25 23 17 8 7 7 7 6 5 6 6 6 5 8 10 11 10 11 10 11 13 14 14 16 18 20 21 21 20 19 21 24 26 25
21 23 24 26 28 29 29 29 30 27 24 21 16 8 4 5 5 4 6 5 4 5 5 7 10 13 13 12 10 12 14 14 15 16 17 18 19 18 19 20 21 23 26 28 29
23 23 24 24 23 22 21 20 16 15 13 9 3 1 2 3 5 4 5 7 5 5 7 8 9 10 11 11 11 11 13 14 15 16 17 17 18 21 23 23 25 27 29 32 34
22 20 19 16 14 15 15 16 16 14 10 7 3 2 2 3 5 6 7 7 7 7 6 6 4 6 9 9 9 10 12 13 13 14 15 16 19 23 26 28 29 32 33 34 34
19 18 18 17 18 19 19 18 18 17 15 11 9 6 5 6 8 9 10 11 10 8 7 5 3 3 4 6 7 9 10 12 12 13 17 19 22 23 26 28 30 33 35 38 37
23 22 23 23 23 22 21 22 20 19 18 18 17 15 12 11 12 11 12 12 11 9 7 6 6 6 8 10 10 11 12 13 14 16 18 20 24 25 28 30 34 36 36 39 40
27 27 28 28 27 25 23 24 25 23 22 22 22 21 19 17 13 13 12 14 14 14 12 12 12 13 13 15 15 14 14 15 15 17 18 22 25 25 28 32 38 40 39 38 39
31 30 31 30 29 29 27 26 27 28 27 26 25 24 23 21 17 15 15 16 17 17 18 17 18 18 19 20 19 19 16 14 15 19 24 27 26 28 28 30 33 37 40 42 44
33 33 32 31 30 31 31 29 25 26 31 32 28 27 25 24 22 19 18 18 19 20 22 24 24 24 25 24 22 22 20 20 20 25 26 25 25 28 29 32 35 36 35 37 43
38 36 35 34 32 34 35 39 34 31 29 31 30 26 25 21 20 21 19 19 19 22 24 27 28 26 23 22 22 22 24 25 26 28 28 24 25 27 30 34 35 37 36 39 44
41 41 40 37 36 37 38 40 40 39 37 33 30 27 23 23 22 23 24 24 24 23 23 24 25 25 24 24 26 27 27 29 32 33 31 29 29 31 34 37 36 36 37 41 45
45 43 43 42 41 40 39 39 38 36 40 34 29 27 25 25 27 28 28 30 29 28 29 28 28 29 29 30 32 34 34 36 36 35 35 31 36 34 37 40 39 41 40 43 46
48 47 46 44 44 42 41 40 40 37 43 36 33 29 30 29 30 29 28 28 28 28 28 30 33 35 36 37 38 39 38 34 34 35 37 37 42 42 39 38 39 40 42 44 46
50 49 48 47 45 45 43 42 40 44 45 37 34 34 32 32 31 32 32 30 30 29 32 34 34 33 35 34 33 31 33 34 35 36 37 37 37 37 43 43 44 42 44 44 48
52 52 51 50 47 47 44 44 47 51 44 43 39 36 36 37 35 32 33 35 38 39 35 33 32 31 32 32 34 37 36 41 46 48 47 44 43 43 47 48 45 47 48 47 48
57 56 54 54 50 50 48 49 53 53 46 45 46 43 43 42 39 40 40 40 39 37 39 37 37 38 39 40 41 40 43 45 48 49 49 50 52 48 51 51 49 46 48 49 49
61 61 60 56 55 54 55 56 55 52 50 45 46 49 46 45 46 45 46 46 42 39 41 45 46 47 46 44 45 47 49 50 53 53 53 52 52 54 55 53 53 48 49 52 52
61 59 59 56 54 56 57 55 55 49 50 46 46 49 52 51 50 51 51 52 46 44 43 46 48 50 51 53 55 55 57 56 55 56 58 59 58 58 61 57 55 50 51 54 55
58 60 58 56 55 59 61 58 57 54 52 51 50 50 52 56 54 53 54 55 56 55 54 51 55 56 56 57 58 60 62 61 60 60 60 62 62 64 59 59 54 52 55 57 59
68 64 61 61 63 63 64 61 60 58 55 56 54 53 54 57 60 63 60 58 61 62 62 61 62 63 63 63 62 63 64 64 65 65 66 66 64 61 59 58 54 54 56 57 58
73 72 70 67 68 67 68 66 63 62 63 60 58 60 57 58 62 62 64 63 62 63 66 68 70 71 69 68 68 68 67 68 67 70 69 65 67 59 61 58 54 55 55 61 60
82 80 80 79 71 68 71 72 71 68 68 68 66 64 64 66 69 68 68 68 69 71 72 74 75 74 73 72 71 72 70 71 71 75 70 75 69 60 61 56 54 58 62 66 60
85 83 82 80 79 74 71 73 72 71 73 72 72 71 71 73 74 75 76 80 80 80 81 81 81 81 79 76 73 73 71 71 73 72 72 70 67 62 60 58 61 61 66 62 56
92 85 81 79 79 79 76 75 75 76 77 76 74 74 76 78 80 79 81 81 83 82 82 85 84 83 83 77 74 76 76 79 77 72 69 64 71 61 61 62 61 62 59 55 50
96 89 86 84 82 83 82 80 80 81 83 84 82 81 81 82 84 86 89 89 88 85 83 84 83 80 79 77 77 84 81 77 75 72 65 67 64 60 60 62 61 57 52 47 46
Wind_Direction
258 269 278 282 286 291 294 299 301 305 312 316 321 332 341 350 348 348 0 30 20 23 20 11 17 41 47 3 351 350 345 346 332 326 321 324 327 327 330 329 318 320 324 322 321
271 278 285 288 291 295 298 301 305 309 312 315 322 332 339 345 343 343 352 33 24 23 21 20 17 19 359 356 353 348 338 336 332 332 338 333 330 328 329 328 311 317 315 312 315
272 280 285 290 295 298 300 304 307 309 310 312 313 323 326 338 345 354 352 30 22 0 339 358 5 353 344 346 348 350 334 331 338 334 328 325 323 322 321 312 309 311 310 311 311
263 270 276 283 288 293 296 299 301 302 306 309 312 322 318 321 339 345 342 340 15 8 341 327 331 330 333 339 338 338 336 332 330 326 326 326 323 320 309 305 303 305 310 312 311
265 270 274 278 282 287 295 302 304 306 310 314 328 325 321 314 334 333 325 321 325 325 317 318 338 335 335 341 332 320 318 320 321 324 329 327 319 317 315 318 313 306 306 308 310
264 266 271 274 281 290 298 303 307 308 310 313 308 309 307 293 298 293 296 297 311 317 316 324 338 348 339 335 325 317 313 318 322 330 328 326 315 316 317 317 317 314 312 313 312
253 255 258 265 272 281 288 296 305 309 303 291 288 275 276 279 276 274 277 281 286 289 290 290 293 302 319 317 312 313 315 315 318 324 323 324 317 319 316 318 314 313 310 311 312
257 261 266 270 274 276 282 289 293 298 299 291 283 279 276 276 272 272 273 277 274 262 254 252 249 258 265 272 280 294 304 306 309 310 315 318 315 316 316 318 314 314 314 313 312
266 271 273 275 275 275 280 286 289 291 294 296 288 277 278 276 269 269 267 269 265 253 254 255 257 263 269 274 279 286 292 297 303 308 313 319 319 318 316 311 311 314 315 316 314
268 274 278 279 278 280 284 286 289 287 288 290 291 282 276 271 270 268 265 263 259 257 262 266 264 267 276 281 283 287 286 291 297 305 312 315 313 314 314 310 309 311 313 313 311
266 269 273 276 278 283 284 289 294 296 287 282 280 276 274 268 268 260 262 259 265 267 269 266 267 270 274 278 282 287 288 290 295 301 308 307 307 311 315 319 316 313 309 306 303
266 265 267 269 270 275 280 282 287 295 295 297 277 268 268 261 261 261 262 265 269 268 266 268 270 272 273 273 275 275 281 288 295 302 305 311 313 312 313 321 316 312 311 307 301
266 269 269 266 266 267 269 276 282 288 290 295 282 267 258 260 262 260 261 268 272 274 275 272 273 274 274 272 275 279 286 292 296 299 304 305 305 315 319 317 312 309 305 302 301
265 266 268 270 271 270 271 273 276 282 286 288 286 284 269 268 270 267 263 269 272 278 280 280 278 279 280 284 289 291 293 296 299 297 300 311 306 312 312 315 310 308 303 301 300
264 266 267 269 269 270 272 273 274 275 276 285 282 276 276 274 273 270 266 268 275 279 283 285 284 283 285 288 290 294 298 299 298 303 305 312 310 310 308 308 311 308 304 303 303
262 264 265 266 267 269 271 272 273 271 271 274 275 274 272 276 275 275 270 273 277 284 292 292 290 291 288 289 290 294 300 302 306 312 314 311 309 310 311 307 310 309 306 302 300
260 262 263 265 266 267 267 269 270 268 272 274 276 269 269 273 280 275 272 274 280 285 289 289 288 290 291 292 295 299 299 302 305 308 308 308 306 316 306 306 308 309 303 299 298
258 259 260 261 265 266 265 264 265 271 271 276 275 273 269 266 266 268 268 270 278 285 293 298 294 289 291 291 293 296 298 298 300 303 304 302 304 310 306 305 305 304 299 295 293
256 258 258 261 262 264 265 263 266 269 271 272 271 270 268 269 272 270 270 271 277 285 288 292 295 294 291 290 290 292 296 295 298 299 297 303 305 303 301 304 303 303 296 291 287
254 255 258 260 262 264 262 261 266 268 272 269 265 269 270 271 270 272 273 274 277 283 287 289 289 293 295 294 294 292 295 294 298 299 295 305 306 305 302 303 300 297 291 286 282
256 256 255 256 261 262 262 266 268 268 268 265 265 265 268 270 269 267 268 272 278 280 282 285 284 288 289 289 286 287 290 291 288 294 292 296 299 299 302 299 297 291 287 283 282
255 258 257 258 261 262 264 265 269 269 269 269 264 261 266 268 269 270 270 274 280 281 283 286 284 288 291 292 288 286 289 289 284 292 291 288 303 298 295 294 291 290 283 280 278
258 261 261 262 266 265 262 263 265 266 268 269 267 266 266 266 268 273 277 279 280 280 281 282 284 288 291 293 293 291 291 291 287 288 290 288 302 295 292 292 291 285 278 279 280
257 261 262 263 265 268 264 263 265 266 268 269 270 270 269 267 268 270 272 274 279 284 284 283 285 287 289 289 289 289 291 290 288 288 293 294 298 294 290 291 286 279 277 280 286
255 258 261 267 268 268 267 265 266 269 270 272 278 281 283 284 284 284 285 286 286 286 285 285 285 285 285 286 285 288 289 288 285 286 282 295 292 292 291 287 280 279 280 286 285
255 253 253 256 261 267 266 268 270 271 271 268 270 271 272 274 275 272 275 276 276 277 276 280 282 283 284 285 286 287 289 287 288 287 286 287 288 288 283 281 285 283 284 283 283
252 250 253 253 254 255 257 260 264 265 265 261 262 264 266 264 260 261 264 266 267 267 269 271 275 279 280 280 279 282 286 284 282 285 284 282 287 286 284 285 284 284 283 282 280